Regional Weather Roundup
Issued by NWS

Home | Current Version | Previous Version | Graphics & Text | Print | Product List | Glossary On
Versions: 1 2 3 4 5 6 7 8 9 10 11 12 13 14 15 16 17 18 19 20 21 22 23 24 25 26 27 28 29 30 31 32 33 34 35 36 37 38 39 40 41 42 43 44 45 46 47 48 49 50
000
ASUS43 KIND 052009
RWRIN

WEATHER ROUNDUP FOR INDIANA
NATIONAL WEATHER SERVICE INDIANAPOLIS IN
300 PM EST THU MAR 05 2015

NOTE: "FAIR" INDICATES FEW OR NO CLOUDS BELOW 12,000 FEET WITH NO
SIGNIFICANT WEATHER AND/OR OBSTRUCTIONS TO VISIBILITY.

* - STATION DOES NOT REPORT WEATHER SUCH AS PRECIPITATION OR FOG.

+ - STATION NOT QUALITY CONTROLLED BY THE NATIONAL WEATHER SERVICE.
    USE DATA WITH CAUTION...ESPECIALLY DEWPOINT AND RELATIVE
    HUMIDITY OBSERVATIONS.

INZ001>003-010>013-019-020-052100-
NORTHWEST INDIANA

CITY           SKY/WX    TMP DP  RH WIND       PRES   REMARKS
GARY /AIRPORT/ SUNNY     21  -8  27 W12G23    30.47S WCI   9
KNOX *+          N/A     19  -9  27 NW8       30.44S WCI   9
LA PORTE +     SUNNY     20   5  52 NW10      30.44S WCI   9
MICHIGAN CITY+ SUNNY     19   0  42 NW7       30.47S WCI  10
MONTICELLO +   MOSUNNY   19  11  71 W12       30.45S WCI   7
RENSSELAER +   SUNNY     19   5  53 NW10      30.47S WCI   8
VALPARAISO     SUNNY     19   1  45 NW8G17    30.44  WCI   9

$$

LMZ046-743>745-052100-
SOUTHERN LAKE MICHIGAN

STATION/POSITION TIME  TEMP WIND        PRES
                       AIR  DIR/SP/G
                 (UTC) (F)  (DEG/KT/KT) (MB)
MICHIGAN CITY    2000   18  290/ 13/ 16   N/A

$$

INZ004-005-014>016-021>024-052100-
NORTH CENTRAL INDIANA

CITY           SKY/WX    TMP DP  RH WIND       PRES   REMARKS
ELKHART        LGT SNOW  18  10  73 N6        30.42S WCI   9
GOSHEN         CLOUDY    19  10  68 W12       30.41S WCI   7
LOGANSPORT +   PTSUNNY   19   5  53 NW8       30.45S WCI   9
PERU/GRISSOM   LGT SNOW  19   9  66 NW10      30.41S WCI   7
ROCHESTER +    MOSUNNY   23  10  58 W10G17    30.43S WCI  12
SOUTH BEND     MOSUNNY   19   7  59 W18       30.43S WCI   4
WARSAW +       LGT SNOW  19  10  68 NW6       30.41S WCI  11

$$

INZ006>009-017-018-025>027-052100-
NORTHEAST INDIANA

CITY           SKY/WX    TMP DP  RH WIND       PRES   REMARKS
ANGOLA *+      PTSUNNY   16   0  48 N7        30.39R WCI   6
AUBURN +       PTSUNNY   21   3  45 NW8       30.41R WCI  12
FORT WAYNE     PTSUNNY   20   6  55 NW12      30.41S WCI   8
HUNTINGTON +   CLOUDY    20   1  42 NW9       30.41S WCI  10

$$

INZ028-029-035-036-043>045-051>053-052100-
WEST CENTRAL INDIANA

CITY           SKY/WX    TMP DP  RH WIND       PRES   REMARKS
CRAWFORDSVL +  CLOUDY    17   3  53 NW13      30.46R WCI   4
GREENCASTLE +  MOSUNNY   21   3  45 NW6       30.44S WCI  14
LAFAYETTE      PTSUNNY   17   7  64 NW14      30.47S WCI   3
TERRE HAUTE    SUNNY     19   5  54 NW16      30.49R WCI   4

$$

INZ030>032-037>040-046>048-054>057-064-065-052100-
CENTRAL INDIANA

CITY           SKY/WX    TMP DP  RH WIND       PRES   REMARKS
CP ATTERBURY + MOSUNNY   27  10  50 N12       30.43R WCI  16
COLUMBUS       CLOUDY    23   9  54 N12       30.43S WCI  12
FRANKFORT +    PTSUNNY   20  10  64 NW6       30.45F WCI  12
GREENWOOD *+   MOSUNNY   23   3  42 NW10G20   30.42R WCI  12
INDIANAPOLIS   PTSUNNY   21   6  52 NW12      30.42R WCI   9
-EAGLE CREEK   PTSUNNY   21   8  57 W10       30.42F WCI  10
KOKOMO *+      SUNNY     19   9  63 N8        30.43S WCI   9
MARION +       CLOUDY    19   6  55 NW13      30.42F WCI   6
MT COMFORT *+  MOSUNNY   23  -2  33 NW13      30.42S WCI  11
SHELBYVILLE    CLOUDY    23   7  50 N10       30.41S WCI  12
ZIONSVILLE +   CLOUDY    22   6  51 W8        30.43S WCI  13

$$

INZ033-034-041-042-049-050-058-059-052100-
EAST CENTRAL INDIANA

CITY           SKY/WX    TMP DP  RH WIND       PRES   REMARKS
MUNCIE         CLOUDY    19   6  57 NW12      30.41R WCI   7

$$

INZ060-061-067>069-081>083-085>088-052100-
SOUTHWEST INDIANA

CITY           SKY/WX    TMP DP  RH WIND       PRES   REMARKS
EVANSVILLE     SUNNY     23   4  44 NW15G22   30.51R WCI  10
HUNTINGBURG *+ SUNNY     21   7  53 N14G22    30.48R WCI   8
WASHINGTON +   SUNNY     21   5  49 NW16      30.49R WCI   7

$$

INZ062-063-066-070>080-084-089>092-052100-
SOUTH CENTRAL AND SOUTHEAST INDIANA

CITY           SKY/WX    TMP DP  RH WIND       PRES   REMARKS
BEDFORD +      SUNNY     27   5  39 NW3       30.42S
BLOOMINGTON    CLOUDY    23   8  52 N9        30.42R WCI  13
NORTH VERNON + PTSUNNY   23   9  54 N10       30.41S WCI  12
SEYMOUR +      PTSUNNY   27  10  50 NE3       30.42S

$$




USA.gov is the U.S. government's official web portal to all federal, state and local government web resources and services.